Theta_e
341 346 349 349 348 347 345 343 341 341 340 344 345 343 342 340 339 339 338 337 337 336 339 340 340 340 341 341 339 338 337 336 335 335 335 334 334 333 332 333 336 329 333
344 346 348 349 347 346 343 342 342 341 340 343 344 343 342 339 339 337 335 335 335 333 334 338 338 338 340 339 337 335 334 333 332 333 335 334 333 332 332 332 335 328 331
343 345 347 348 348 345 343 340 340 340 341 343 342 341 340 338 336 334 336 334 332 331 331 336 335 339 337 339 336 334 332 331 329 330 332 330 329 331 331 331 331 331 329
343 344 345 345 347 345 342 340 339 338 339 339 338 340 339 336 333 333 333 331 334 333 334 333 334 336 339 339 335 333 331 329 326 329 327 327 327 328 330 328 329 329 328
343 344 344 344 346 344 341 340 339 338 338 338 339 340 338 336 334 332 331 330 330 331 332 330 333 334 338 338 334 331 329 327 327 328 325 327 327 327 327 326 328 327 327
343 344 341 344 344 342 340 339 339 338 337 336 341 341 338 337 335 332 331 330 329 330 329 330 333 333 335 336 333 331 328 326 329 325 324 325 326 326 325 325 324 324 327
342 342 344 343 344 342 340 339 339 338 337 338 338 337 340 338 337 333 332 330 328 328 328 329 332 331 332 334 334 331 327 327 326 324 323 324 326 323 324 324 323 323 322
341 343 343 338 340 342 341 340 339 339 338 336 336 335 340 339 338 337 334 331 329 328 328 329 329 329 330 330 332 330 328 327 323 324 323 324 324 322 323 321 321 321 321
342 341 342 342 338 336 338 338 339 339 339 339 337 337 341 340 339 338 338 335 331 332 330 330 328 328 328 329 329 329 329 326 323 324 323 323 326 324 322 321 321 321 321
340 341 340 341 340 339 338 332 334 336 336 335 335 335 333 336 336 335 332 334 335 333 332 331 330 327 326 327 326 327 327 325 323 325 324 324 325 324 324 322 321 321 321
336 338 340 339 339 339 339 334 330 331 332 332 332 328 327 336 336 332 329 331 334 335 335 333 332 330 329 328 327 325 324 326 326 325 324 325 325 325 324 324 323 323 322
335 336 338 341 339 338 338 338 335 333 334 334 333 333 331 331 332 331 327 327 330 329 332 335 333 331 327 325 325 323 323 325 325 325 325 326 325 327 327 326 326 325 323
335 337 338 337 340 339 338 338 337 335 335 335 335 334 333 330 331 331 330 329 329 323 328 331 331 329 329 327 326 325 324 324 324 324 324 325 326 327 328 328 329 328 326
334 336 338 339 337 339 339 338 337 335 336 335 335 335 334 332 332 331 330 330 332 330 330 331 331 331 328 328 327 325 324 324 325 325 324 322 325 327 328 329 329 330 330
331 333 336 339 339 337 338 339 338 337 336 336 336 336 334 333 333 331 330 329 329 329 328 329 329 328 328 326 327 325 324 324 324 325 326 318 322 325 328 329 331 330 329
329 330 333 335 338 339 336 336 339 338 338 338 338 337 335 334 333 331 330 329 328 328 328 327 327 327 327 327 325 325 324 324 324 325 325 326 321 324 326 329 330 331 331
324 326 327 331 335 337 338 336 335 340 338 338 338 338 336 335 333 331 331 331 330 330 329 328 327 326 325 325 325 325 325 325 324 323 324 325 326 320 323 326 328 330 332
322 322 323 325 330 333 335 338 337 336 337 336 337 338 338 335 335 333 332 331 332 331 329 328 326 325 324 324 324 325 325 326 326 325 324 324 325 325 323 324 326 328 330
321 321 320 322 324 329 334 336 338 339 338 334 334 335 337 335 334 334 333 333 332 330 329 329 327 326 324 324 324 325 325 325 325 324 323 323 324 325 325 324 322 323 327
319 319 320 320 322 326 331 334 336 338 338 336 333 332 334 337 335 333 333 332 331 330 329 328 328 328 326 325 322 323 324 325 326 325 324 324 323 323 324 325 325 320 320
316 316 317 317 319 322 327 330 332 333 335 333 333 332 332 334 335 333 331 331 331 329 329 330 327 325 325 326 321 321 323 325 325 325 324 324 324 324 324 323 325 325 324
313 314 315 316 318 319 323 328 330 331 333 333 332 332 332 331 332 331 331 330 330 328 327 327 325 323 323 325 318 316 312 318 322 324 325 324 323 324 324 324 323 324 324
310 311 313 317 316 318 322 326 328 330 331 330 332 332 330 330 331 331 330 329 329 328 326 325 325 323 319 322 322 317 309 307 313 319 320 321 323 322 323 323 323 323 322
308 310 313 315 319 323 323 325 326 325 324 328 329 330 330 331 330 330 330 329 328 328 327 326 326 325 323 319 320 320 320 318 311 310 314 315 318 319 321 321 322 322 323
305 307 310 312 311 314 315 324 326 325 327 328 327 327 327 328 329 327 327 329 328 328 327 326 325 324 324 321 319 317 315 316 317 313 310 314 318 319 319 320 321 322 322
303 303 305 305 305 305 306 308 310 309 309 311 311 312 313 313 311 309 313 315 322 325 325 325 325 324 323 321 321 320 317 313 312 312 311 312 313 316 320 321 320 320 320
Wind_Speed
7 13 10 12 12 11 9 8 7 6 5 7 12 11 11 9 9 9 10 10 10 8 10 11 10 10 10 14 13 15 15 14 13 13 12 12 12 11 11 9 10 12 14
11 12 10 11 10 11 8 7 6 3 1 7 11 10 10 9 8 7 7 9 7 5 6 8 9 9 8 11 12 13 13 12 10 7 9 13 10 11 12 12 12 11 12
11 12 12 11 11 11 8 6 4 2 5 8 10 9 8 6 7 7 8 6 5 3 3 6 7 9 3 10 10 11 11 11 7 2 5 6 8 9 10 10 10 11 11
10 10 12 10 11 11 8 6 6 3 4 6 4 8 9 5 3 4 5 3 5 4 6 5 7 10 6 10 10 10 10 7 2 5 1 5 8 6 8 7 9 8 9
10 9 12 10 9 10 9 8 7 6 5 4 3 8 8 7 3 4 3 2 2 3 4 3 6 8 10 10 9 9 8 5 2 5 4 3 6 6 6 6 9 7 6
10 9 11 9 8 7 7 8 9 8 6 2 7 10 9 9 7 4 2 3 1 2 2 2 6 7 8 5 7 6 5 1 7 5 4 3 7 6 5 4 6 4 6
10 8 10 8 9 9 9 8 7 7 7 6 6 6 11 10 10 5 5 4 3 2 1 2 4 5 6 5 5 5 2 4 9 4 3 2 7 3 4 4 4 4 4
7 8 9 8 6 8 7 7 6 7 6 4 4 3 9 12 11 12 9 4 4 3 1 2 4 5 4 4 1 3 2 6 7 1 2 1 6 2 3 2 1 2 4
5 6 6 8 9 6 6 6 6 6 6 5 5 0 4 9 9 9 10 8 7 6 4 3 4 5 5 5 4 2 4 7 10 2 3 2 8 4 3 3 3 4 4
5 5 5 6 9 9 9 7 6 5 6 7 8 6 5 8 7 7 6 7 8 9 8 7 5 4 5 5 4 4 5 8 9 4 4 4 7 6 6 6 5 5 6
5 6 6 5 7 8 8 10 8 7 6 5 7 7 7 7 10 9 7 3 10 9 11 11 10 8 6 7 7 5 5 7 9 4 4 9 7 8 8 8 9 9 9
9 8 8 9 8 8 6 7 9 9 9 9 9 10 9 9 9 7 6 9 7 5 7 10 11 9 7 7 6 8 5 9 6 6 5 9 8 11 12 11 13 12 12
7 8 9 9 9 9 8 6 5 6 6 7 11 10 9 7 7 6 5 6 7 10 8 9 9 8 9 7 6 6 6 6 5 5 6 9 9 13 14 13 14 16 15
7 8 9 11 10 11 8 7 7 6 6 6 8 11 7 6 6 6 6 7 6 5 8 7 7 9 8 6 9 9 9 7 5 4 7 10 10 14 16 16 15 15 18
8 8 9 11 12 11 11 9 9 9 7 9 9 10 8 8 7 7 7 6 6 7 7 7 7 7 8 9 10 10 10 10 10 6 5 11 13 15 18 18 18 17 17
8 9 9 11 12 12 12 13 10 9 10 9 8 9 12 9 7 8 7 7 7 7 7 7 7 7 7 8 10 11 11 10 10 10 7 7 14 15 19 20 20 20 19
9 10 9 10 11 14 15 12 10 10 9 9 9 12 12 11 11 10 8 7 7 7 8 7 8 8 8 8 10 10 9 11 10 11 9 8 8 15 17 22 22 22 22
14 13 13 8 11 13 14 12 10 10 10 9 9 9 12 13 12 10 8 8 8 7 7 7 7 7 8 8 8 8 8 10 10 11 10 10 9 9 14 21 22 24 24
12 12 12 12 13 13 13 11 12 13 10 8 9 9 12 12 13 11 9 8 9 7 8 7 7 8 8 8 8 9 8 9 9 9 12 12 13 11 9 13 22 22 24
11 11 13 11 12 11 9 9 9 9 9 7 8 9 13 10 12 12 10 11 8 7 8 9 9 8 8 8 7 8 8 8 9 9 11 11 12 14 12 14 10 12 22
11 12 12 13 13 9 7 8 8 9 8 6 6 9 10 10 10 9 8 9 9 9 11 10 10 12 8 8 6 7 9 11 12 10 10 11 13 13 13 12 10 9 9
11 11 12 12 12 10 8 7 8 8 8 9 8 8 9 9 9 7 8 8 9 6 9 11 11 7 8 6 4 3 4 4 9 11 10 11 14 10 11 13 13 14 12
9 11 11 11 11 10 9 7 7 7 6 5 6 6 10 10 9 8 8 7 7 6 6 7 8 9 7 4 9 6 3 5 3 3 9 9 12 9 9 10 11 12 13
8 9 9 9 10 7 7 7 10 8 7 6 6 2 2 4 7 8 8 7 6 4 5 5 5 5 6 8 4 7 11 6 4 4 3 4 7 10 12 10 11 13 14
8 9 9 10 12 11 12 10 4 7 4 6 5 5 5 5 6 8 7 4 5 4 6 7 7 7 7 7 7 5 6 8 10 8 10 7 8 9 10 10 11 10 12
7 8 9 11 12 13 12 12 13 13 10 7 7 6 5 5 5 9 7 7 7 4 5 5 6 8 6 7 7 7 7 4 4 6 7 9 9 9 10 9 9 10 10
Wind_Direction
137 126 142 146 139 133 117 120 118 120 115 101 110 114 105 98 91 88 81 72 67 68 84 74 70 68 80 78 82 81 80 79 80 82 80 77 83 84 76 59 99 84 74
135 137 142 144 140 124 114 117 137 157 213 112 103 101 103 104 103 99 83 69 69 81 73 78 65 61 77 91 89 90 88 88 81 84 109 99 78 84 80 66 66 84 85
131 135 153 142 137 120 123 127 140 116 98 133 117 111 106 103 118 112 103 94 99 108 120 93 60 49 88 109 102 99 96 89 87 57 303 87 85 82 90 83 86 89 83
137 145 144 138 135 126 132 146 148 134 129 126 128 139 125 116 135 116 94 119 55 76 128 69 52 36 44 126 116 106 97 90 60 286 14 73 94 84 87 97 90 88 92
136 142 120 134 129 131 150 152 158 156 160 147 204 146 129 133 138 124 124 94 88 31 12 81 39 31 26 124 116 115 112 106 269 289 55 85 111 90 76 89 105 87 51
136 134 133 132 130 151 158 167 165 168 183 191 162 150 158 154 147 147 157 94 73 123 327 311 30 16 28 115 123 120 116 172 283 40 78 62 56 103 101 111 89 88 104
141 149 156 148 155 164 169 176 192 165 183 138 162 160 169 170 157 160 165 166 207 250 305 321 343 357 16 21 142 135 138 302 312 38 61 52 88 98 113 128 126 135 138
160 151 141 156 164 170 179 185 205 170 205 205 190 124 183 171 175 168 190 191 223 242 260 305 319 329 341 1 51 148 186 270 270 21 22 69 103 148 135 192 166 161 168
173 175 169 178 177 182 194 198 209 188 196 222 249 168 158 173 187 185 182 179 193 201 198 243 295 315 317 327 328 253 243 271 289 328 296 244 149 190 192 222 196 204 207
154 240 202 203 186 193 187 200 217 221 240 225 229 189 176 196 198 201 184 194 207 203 201 204 220 259 286 293 298 290 265 268 275 278 252 112 149 217 201 214 227 221 220
215 224 236 223 227 218 212 178 198 220 232 241 223 231 180 204 192 190 204 197 199 216 206 207 206 214 231 246 233 245 270 257 263 272 274 135 175 224 222 206 216 220 226
215 223 226 249 223 235 229 202 208 204 214 215 216 210 221 229 226 227 199 195 209 231 246 213 216 212 212 256 214 201 236 250 274 270 268 161 194 234 243 232 216 217 216
223 215 214 225 248 229 224 225 216 221 212 220 222 220 220 230 232 221 239 206 222 218 241 213 221 224 242 238 254 251 257 257 261 263 269 176 213 237 247 246 236 221 219
231 235 218 208 222 242 235 212 234 224 224 221 222 220 223 225 226 237 226 233 220 231 219 216 216 219 217 267 254 262 261 254 252 251 261 183 212 242 248 255 252 242 225
248 243 235 223 218 218 236 239 224 228 218 231 224 218 220 225 222 229 234 236 236 228 234 233 241 240 242 235 244 242 246 251 251 248 243 191 203 231 245 247 252 249 247
250 252 250 235 232 217 226 236 240 228 229 221 228 222 216 226 228 227 230 233 239 240 241 241 241 243 240 242 247 239 240 243 249 250 250 245 203 215 235 242 245 250 248
276 277 268 253 240 230 222 221 236 248 230 235 222 226 226 220 232 233 233 230 231 238 246 254 252 251 258 254 247 247 243 240 239 247 248 243 240 216 225 236 240 244 248
283 286 284 255 236 244 234 225 211 225 243 230 240 234 219 227 226 233 232 235 235 233 238 235 245 248 255 256 257 255 246 240 244 251 249 243 240 241 216 225 232 238 241
298 298 281 279 264 242 235 237 231 228 217 221 229 234 241 226 226 227 231 229 231 232 235 235 233 234 243 248 251 252 253 255 253 248 247 246 247 243 240 221 218 226 232
308 291 287 280 271 259 242 233 238 234 227 209 213 223 229 235 226 231 233 236 228 226 229 234 235 238 242 247 258 269 261 250 253 251 254 250 247 247 241 240 238 225 224
305 306 296 292 281 264 234 228 228 230 227 236 227 220 221 243 244 224 231 236 229 223 234 235 243 241 239 241 252 262 264 261 254 247 244 249 249 251 242 236 238 242 232
320 323 315 301 285 270 256 238 232 233 235 212 211 221 219 228 254 243 232 237 241 228 237 247 250 251 255 253 223 246 273 253 239 239 236 244 251 250 244 246 235 236 237
343 339 328 317 297 281 261 240 232 238 247 251 234 206 198 206 222 241 243 249 251 251 239 237 241 236 243 238 226 230 260 243 320 221 230 239 243 246 264 256 240 238 239
4 355 353 353 349 326 279 239 233 227 233 236 230 216 129 186 207 219 216 228 251 261 256 248 248 246 231 241 230 226 242 264 271 283 260 255 243 242 238 235 238 232 227
19 17 18 27 29 15 22 3 295 237 354 27 30 25 29 28 26 12 345 252 244 250 256 256 251 237 242 250 244 236 236 249 258 262 272 254 236 248 255 257 257 250 240
32 35 35 42 46 40 39 39 48 53 49 47 40 39 36 48 45 26 13 13 359 304 273 265 259 257 248 243 249 251 251 255 263 249 261 270 271 270 268 263 253 252 247